Location: Newark
(34.0131°N, 4.3314°W)
Time: 15:59:19
(UTC+00:00)

Explorer 11/Cluster Stage 4 - Pass Details

Date: 30 October 2019
Orbit: 467 x 1259 km, 28.8° (Epoch: 14 November)

Event Time Altitude Azimuth Distance (km) Brightness Sun altitude
Rises 03:11:32 0° 219° (SW) 3,861 - -42.5°
Reaches altitude 10° 03:15:16 10° 203° (SSW) 2,758 - -41.7°
Maximum altitude 03:19:50 20° 160° (SSE) 1,955 - -40.8°
Exits shadow 03:22:45 14° 125° (SE) 2,148 9.2 -40.2°
Drops below altitude 10° 03:23:50 10° 115° (ESE) 2,359 9.5 -40.0°
Sets 03:26:43 0° 97° (E) 3,137 10.5 -39.4°
